Home > Weather > St. George > Past weeks

Flag for U.S.A. Weather for the Past 2 Weeks in St. George, Utah, U.S.A.

Now
43 °F

Clear.


Feels Like: 40 °F
Forecast: 35 / 65 °F
Wind: 5 mph from South

Location: Saint George

Current Time: Feb 11, 2016 at 2:16:09 AM

Latest Report: Feb 11, 2016 at 1:35 AM


Visibility: 10 mi

Pressure: 30.33 "Hg (27.36 "Hg at 842m altitude)

Humidity: 42%

Dew point: 21 °F

Location of St. GeorgeLocation

Historic Weather in St. George — Graph

°F

St. George Temperature Yesterday

Maximum temperature yesterday: 64 °F (at 4:55 PM)
Minimum temperature yesterday: 34 °F (at 6:35 AM)
Average temperature yesterday: 46 °F

High & Low Weather Summary for the Past Weeks

 TemperatureHumidityPressure
High64 °F (Feb 8, 5:35 PM)87% (Jan 31, 8:15 PM)30.57 "Hg (Jan 31, 8:15 PM)
Low23 °F (Feb 3, 6:35 AM)23% (Feb 7, 4:55 PM)29.42 "Hg (Feb 1, 12:55 AM)
Average41 °F51%30.26 "Hg
* Reported Jan 27 12:15 AM — Feb 11 12:55 AM, St. George, Weather by CustomWeather, © 2016

Note: Actual official high and low records may vary slightly from our data, if they occured in-between our weather recording intervals... More about our weather records

Advertising

St. George Weather History for the Previous 24 Hours

 ConditionsComfort  
Time TempWeatherWind HumidityBarometerVisibility
12:55 AM
Thu, Feb 11
43 °FClear.No wind49%30.33 "Hg10 mi
12:35 AM43 °FClear.No wind49%30.33 "Hg10 mi
12:15 AM41 °FClear.3 mph53%30.33 "Hg10 mi
11:55 PM
Wed, Feb 10
43 °FClear.No wind49%30.33 "Hg10 mi
11:35 PM45 °FClear.No wind49%30.33 "Hg10 mi
11:15 PM46 °FClear.No wind46%30.32 "Hg10 mi
10:55 PM46 °FClear.3 mph46%30.32 "Hg10 mi
10:35 PM45 °FClear.No wind49%30.32 "Hg10 mi
10:15 PM48 °FClear.3 mph43%30.31 "Hg10 mi
9:35 PM48 °FClear.No wind43%30.30 "Hg10 mi
9:15 PM48 °FClear.No wind43%30.30 "Hg10 mi
8:55 PM52 °FClear.No wind38%30.30 "Hg10 mi
8:35 PM50 °FClear.No wind43%30.29 "Hg10 mi
8:15 PM50 °FClear.No wind40%30.29 "Hg10 mi
7:35 PM52 °FClear.3 mph38%30.28 "Hg10 mi
7:15 PM55 °FClear.No wind33%30.28 "Hg10 mi
6:55 PM57 °FClear.No wind31%30.28 "Hg10 mi
6:15 PM61 °FClear.3 mph27%30.27 "Hg10 mi
5:55 PM63 °FSunny.No wind25%30.27 "Hg10 mi
5:15 PM63 °FSunny.5 mph25%30.26 "Hg10 mi
4:55 PM64 °FSunny.5 mph24%30.26 "Hg10 mi
4:15 PM63 °FSunny.5 mph25%30.27 "Hg10 mi
3:55 PM63 °FSunny.6 mph25%30.28 "Hg10 mi
3:35 PM63 °FSunny.No wind27%30.29 "Hg10 mi
2:55 PM63 °FSunny.No wind25%30.30 "Hg10 mi
2:35 PM61 °FSunny.No wind27%30.30 "Hg10 mi
2:15 PM59 °FSunny.No wind29%30.32 "Hg10 mi
1:55 PM57 °FSunny.No wind31%30.33 "Hg10 mi
10:55 AM46 °FSunny.3 mph46%30.44 "Hg10 mi
10:35 AM45 °FSunny.3 mph49%30.44 "Hg10 mi
10:15 AM43 °FSunny.3 mph53%30.45 "Hg10 mi
9:55 AM43 °FSunny.No wind53%30.45 "Hg10 mi
9:35 AM41 °FSunny.No wind57%30.45 "Hg10 mi
9:15 AM39 °FSunny.3 mph61%30.45 "Hg10 mi
8:55 AM37 °FSunny.3 mph60%30.45 "Hg10 mi
8:35 AM37 °FSunny.No wind60%30.44 "Hg10 mi
8:15 AM36 °FSunny.No wind65%30.44 "Hg10 mi
7:55 AM37 °FSunny.No wind56%30.44 "Hg10 mi
7:35 AM36 °FSunny.No wind60%30.43 "Hg10 mi
7:15 AM36 °FClear.No wind65%30.43 "Hg10 mi
6:55 AM34 °FClear.No wind65%30.42 "Hg10 mi
6:35 AM34 °FClear.5 mph65%30.42 "Hg10 mi
6:15 AM36 °FClear.5 mph65%30.42 "Hg10 mi
5:55 AM36 °FClear.3 mph65%30.41 "Hg10 mi
5:35 AM37 °FClear.No wind60%30.40 "Hg10 mi
5:15 AM36 °FClear.No wind60%30.39 "Hg10 mi
4:55 AM39 °FClear.No wind52%30.39 "Hg10 mi
4:35 AM39 °FClear.No wind56%30.38 "Hg10 mi
4:15 AM37 °FClear.No wind60%30.38 "Hg10 mi
3:55 AM37 °FClear.No wind60%30.38 "Hg10 mi
3:35 AM39 °FClear.No wind56%30.38 "Hg10 mi
3:15 AM39 °FClear.3 mph56%30.38 "Hg10 mi
2:55 AM39 °FClear.No wind56%30.37 "Hg10 mi
2:35 AM43 °FClear.7 mph49%30.38 "Hg10 mi
2:15 AM43 °FClear.7 mph49%30.37 "Hg10 mi
Weather by CustomWeather, © 2016

See weather overviewHow to use our weather pages